Regional Weather Roundup
Issued by NWS

Home | Current Version | Previous Version | Graphics & Text | Print | Product List | Glossary On
Versions: 1 2 3 4 5 6 7 8 9 10 11 12 13 14 15 16 17 18 19 20 21 22 23 24 25 26 27 28 29 30 31 32 33 34 35 36 37 38 39 40 41 42 43 44 45 46 47 48 49 50
000
ASUS43 KIND 100859
RWRIN

WEATHER ROUNDUP FOR INDIANA
NATIONAL WEATHER SERVICE INDIANAPOLIS IN
400 AM EST WED FEB 10 2016

NOTE: "FAIR" INDICATES FEW OR NO CLOUDS BELOW 12,000 FEET WITH NO
SIGNIFICANT WEATHER AND/OR OBSTRUCTIONS TO VISIBILITY.

* - STATION DOES NOT REPORT WEATHER SUCH AS PRECIPITATION OR FOG.

+ - STATION NOT QUALITY CONTROLLED BY THE NATIONAL WEATHER SERVICE.
    USE DATA WITH CAUTION...ESPECIALLY DEWPOINT AND RELATIVE
    HUMIDITY OBSERVATIONS.

INZ001>003-010>013-019-020-101000-
NORTHWEST INDIANA

CITY           SKY/WX    TMP DP  RH WIND       PRES   REMARKS
GARY /AIRPORT/ CLOUDY    17   4  59 NW16      29.96S WCI   1
MONTICELLO +   CLOUDY    14   6  70 W14       29.94S WCI  -1
RENSSELAER +   CLOUDY    18   7  62 W13G23    29.95S WCI   4

$$

LMZ046-743>745-101000-
SOUTHERN LAKE MICHIGAN

STATION/POSITION TIME  TEMP    WIND        PRES    WAVE
                       AIR SEA DIR/SP/G            HT
                 (UTC) (F)     (DEG/KT/KT) (MB)    (FT)
BURNS HARBOR     0812   19     310/ 23/ 25 1013.5R
MICHIGAN CITY    0800   20     280/ 30/ 33   N/A

$$

INZ004-005-014>016-021>024-101000-
NORTH CENTRAL INDIANA

CITY           SKY/WX    TMP DP  RH WIND       PRES   REMARKS
GOSHEN         LGT SNOW  19  15  84 W10       29.83R FOG     WCI   7
PERU/GRISSOM   FLURRIES  14  10  85 W20       29.88S WCI  -3
SOUTH BEND     SNOW      19  16  88 NW13      29.86R VSB 1/2 WCI   6

$$

INZ006>009-017-018-025>027-101000-
NORTHEAST INDIANA

CITY           SKY/WX    TMP DP  RH WIND       PRES   REMARKS
ANGOLA *+      CLOUDY    19  16  86 W7        29.77S WCI  10
FORT WAYNE     FLURRIES  18  11  74 W17       29.84S WCI   3

$$

INZ028-029-035-036-043>045-051>053-101000-
WEST CENTRAL INDIANA

CITY           SKY/WX    TMP DP  RH WIND       PRES   REMARKS
GREENCASTLE +  CLOUDY    14   3  62 W7G16     29.98R WCI   4
LAFAYETTE      LGT SNOW  13   8  81 W10       29.97R WCI   0
TERRE HAUTE    CLOUDY    15   7  70 W14G22    30.03R WCI   0

$$

INZ030>032-037>040-046>048-054>057-064-065-101000-
CENTRAL INDIANA

CITY           SKY/WX    TMP DP  RH WIND       PRES   REMARKS
FRANKFORT +    LGT SNOW  14   4  66 W20       29.96R WCI  -4
INDIANAPOLIS   FLURRIES  14   7  73 W15       29.95R WCI  -1
-EAGLE CREEK   FLURRIES  14   9  80 W12G22    29.94R WCI   0
KOKOMO *+      CLOUDY    14   9  79 W21       29.91R WCI  -4
MT COMFORT *+  CLOUDY    14   9  79 W17       29.93R WCI  -3
SHELBYVILLE    CLOUDY    16   8  71 W12       29.94R WCI   3

$$

INZ033-034-041-042-049-050-058-059-101000-
EAST CENTRAL INDIANA

CITY           SKY/WX    TMP DP  RH WIND       PRES   REMARKS
MUNCIE         LGT SNOW  16  10  77 W14       29.88S WCI   2

$$

INZ060-061-067>069-081>083-085>088-101000-
SOUTHWEST INDIANA

CITY           SKY/WX    TMP DP  RH WIND       PRES   REMARKS
EVANSVILLE     FLURRIES  18   9  68 NW8       30.10R WCI   8
HUNTINGBURG *+ CLOUDY    18   9  68 NW18G24   30.06R WCI   2

$$

INZ062-063-066-070>080-084-089>092-101000-
SOUTH CENTRAL AND SOUTHEAST INDIANA

CITY           SKY/WX    TMP DP  RH WIND       PRES   REMARKS
BLOOMINGTON    LGT SNOW  14   8  77 W10       29.98R WCI   1
MADISON *+     CLOUDY    18  10  73 W8        29.98S WCI   7
SEYMOUR +      CLOUDY    18  12  79 W14       29.99R WCI   4

$$




USA.gov is the U.S. government's official web portal to all federal, state and local government web resources and services.